| time (UTC) | temp F | wind direction | speed MPH | gust MPH | rain 1hr in | rain 24hr in | rain mn in | humidity % | barometer mb |
| 20260510201529 | 64 | 249 | 1.0 | 9.0 | 0.00 | 0.00 | 0.00 | 74 | 1019.2 |
| 20260510201028 | 64 | 232 | 2.0 | 9.0 | 0.00 | 0.00 | 0.00 | 75 | 1019.2 |
| 20260510200528 | 64 | 219 | 2.0 | 9.0 | 0.00 | 0.00 | 0.00 | 75 | 1019.2 |
| 20260510200028 | 63 | 254 | 4.0 | 15.0 | 0.00 | 0.00 | 0.00 | 75 | 1019.3 |
| 20260510195528 | 63 | 239 | 4.0 | 15.0 | 0.00 | 0.00 | 0.00 | 75 | 1019.4 |
| 20260510195028 | 63 | 243 | 6.0 | 15.0 | 0.00 | 0.00 | 0.00 | 74 | 1019.4 |
| 20260510194528 | 63 | 224 | 4.0 | 13.0 | 0.00 | 0.00 | 0.00 | 75 | 1019.3 |
| 20260510194029 | 63 | 238 | 4.0 | 13.0 | 0.00 | 0.00 | 0.00 | 75 | 1019.1 |
| 20260510193528 | 63 | 229 | 3.0 | 15.0 | 0.00 | 0.00 | 0.00 | 75 | 1019.0 |
| 20260510193028 | 63 | 238 | 5.0 | 15.0 | 0.00 | 0.00 | 0.00 | 74 | 1019.2 |
| 20260510192528 | 63 | 229 | 6.0 | 15.0 | 0.00 | 0.00 | 0.00 | 74 | 1019.0 |
| 20260510192028 | 63 | 208 | 6.0 | 10.0 | 0.00 | 0.00 | 0.00 | 74 | 1019.0 |
| 20260510191528 | 63 | 218 | 5.0 | 10.0 | 0.00 | 0.00 | 0.00 | 75 | 1018.8 |
| 20260510191028 | 63 | 191 | 6.0 | 10.0 | 0.00 | 0.00 | 0.00 | 73 | 1018.7 |
| 20260510190528 | 63 | 231 | 4.0 | 10.0 | 0.00 | 0.00 | 0.00 | 72 | 1018.7 |
| 20260510190028 | 63 | 243 | 5.0 | 10.0 | 0.00 | 0.00 | 0.00 | 72 | 1018.6 |
| 20260510185028 | 63 | 225 | 4.0 | 9.0 | 0.00 | 0.00 | 0.00 | 72 | 1018.5 |
| 20260510184528 | 62 | 246 | 4.0 | 6.0 | 0.00 | 0.00 | 0.00 | 75 | 1018.4 |
| 20260510184028 | 61 | 235 | 2.0 | 6.0 | 0.00 | 0.00 | 0.00 | 75 | 1018.4 |
| 20260510183528 | 61 | 247 | 0.0 | 2.0 | 0.00 | 0.00 | 0.00 | 74 | 1018.4 |
| 20260510183028 | 60 | 0 | 0.0 | 3.0 | 0.00 | 0.00 | 0.00 | 76 | 1018.5 |
| 20260510182528 | 60 | 303 | 0.0 | 3.0 | 0.00 | 0.00 | 0.00 | 76 | 1018.4 |
| 20260510182028 | 59 | 93 | 0.0 | 3.0 | 0.00 | 0.00 | 0.00 | 78 | 1018.4 |
| 20260510181528 | 59 | 149 | 0.0 | 0.0 | 0.00 | 0.00 | 0.00 | 79 | 1018.4 |
| 20260510181028 | 58 | 0 | 0.0 | 1.0 | 0.00 | 0.00 | 0.00 | 81 | 1018.3 |
| 20260510180528 | 58 | 0 | 0.0 | 1.0 | 0.00 | 0.00 | 0.00 | 80 | 1018.4 |
| 20260510180028 | 58 | 19 | 0.0 | 1.0 | 0.00 | 0.00 | 0.00 | 81 | 1018.2 |
| 20260510175528 | 58 | 0 | 0.0 | 0.0 | 0.00 | 0.00 | 0.00 | 82 | 1018.3 |
| 20260510175028 | 58 | 310 | 0.0 | 0.0 | 0.00 | 0.00 | 0.00 | 82 | 1018.3 |
| 20260510174028 | 58 | 334 | 0.0 | 4.0 | 0.00 | 0.00 | 0.00 | 83 | 1018.2 |
| 20260510173528 | 58 | 357 | 1.0 | 4.0 | 0.00 | 0.00 | 0.00 | 82 | 1018.2 |
| 20260510173027 | 58 | 12 | 1.0 | 3.0 | 0.00 | 0.00 | 0.00 | 82 | 1018.2 |
| 20260510172528 | 58 | 333 | 0.0 | 2.0 | 0.00 | 0.00 | 0.00 | 82 | 1018.1 |
| 20260510172028 | 59 | 0 | 0.0 | 0.0 | 0.00 | 0.00 | 0.00 | 82 | 1018.1 |
| 20260510171528 | 59 | 0 | 0.0 | 0.0 | 0.00 | 0.00 | 0.00 | 82 | 1018.1 |
| 20260510171028 | 58 | 0 | 0.0 | 0.0 | 0.00 | 0.00 | 0.00 | 82 | 1018.1 |
| 20260510170528 | 58 | 0 | 0.0 | 0.0 | 0.00 | 0.00 | 0.00 | 82 | 1018.2 |
| 20260510165527 | 58 | 326 | 0.0 | 4.0 | 0.00 | 0.00 | 0.00 | 82 | 1017.9 |
| 20260510165028 | 58 | 291 | 0.0 | 4.0 | 0.00 | 0.00 | 0.00 | 82 | 1018.1 |
| 20260510164527 | 58 | 0 | 0.0 | 0.0 | 0.00 | 0.00 | 0.00 | 82 | 1018.0 |
| 20260510163527 | 58 | 0 | 0.0 | 1.0 | 0.00 | 0.00 | 0.00 | 83 | 1018.1 |
| 20260510163027 | 57 | 0 | 0.0 | 1.0 | 0.00 | 0.00 | 0.00 | 84 | 1018.2 |
| 20260510161527 | 57 | 15 | 0.0 | 3.0 | 0.00 | 0.00 | 0.00 | 85 | 1017.9 |
| 20260510161027 | 57 | 0 | 0.0 | 3.0 | 0.00 | 0.00 | 0.00 | 85 | 1018.0 |
| 20260510160027 | 56 | 0 | 0.0 | 0.0 | 0.00 | 0.00 | 0.00 | 86 | 1017.9 |
| 20260510155027 | 56 | 0 | 0.0 | 2.0 | 0.00 | 0.00 | 0.00 | 86 | 1017.9 |
| 20260510154527 | 56 | 0 | 0.0 | 2.0 | 0.00 | 0.00 | 0.00 | 86 | 1017.8 |
| 20260510154027 | 56 | 214 | 0.0 | 2.0 | 0.00 | 0.00 | 0.00 | 87 | 1017.8 |
| 20260510153527 | 56 | 231 | 0.0 | 1.0 | 0.00 | 0.00 | 0.00 | 87 | 1017.7 |
| 20260510153027 | 56 | 0 | 0.0 | 0.0 | 0.00 | 0.00 | 0.00 | 88 | 1017.8 |
| 20260510152027 | 55 | 0 | 0.0 | 0.0 | 0.00 | 0.00 | 0.00 | 87 | 1017.5 |
| 20260510151620 | 55 | 0 | 0.0 | 0.0 | 0.00 | 0.00 | 0.00 | 87 | 1017.4 |
| 20260510151527 | 55 | 0 | 0.0 | 0.0 | 0.00 | 0.00 | 0.00 | 87 | 1017.4 |
| 20260510151027 | 55 | 0 | 0.0 | 0.0 | 0.00 | 0.00 | 0.00 | 88 | 1017.3 |
| 20260510150527 | 55 | 0 | 0.0 | 0.0 | 0.00 | 0.00 | 0.00 | 88 | 1017.2 |
| 20260510150028 | 55 | 0 | 0.0 | 0.0 | 0.00 | 0.00 | 0.00 | 88 | 1017.3 |
| 20260510145527 | 55 | 0 | 0.0 | 0.0 | 0.00 | 0.00 | 0.00 | 88 | 1017.3 |
| 20260510145027 | 55 | 0 | 0.0 | 0.0 | 0.00 | 0.00 | 0.00 | 88 | 1017.4 |
| 20260510144527 | 55 | 0 | 0.0 | 0.0 | 0.00 | 0.00 | 0.00 | 88 | 1017.3 |
| 20260510144027 | 55 | 0 | 0.0 | 0.0 | 0.00 | 0.00 | 0.00 | 88 | 1017.4 |
| 20260510143027 | 55 | 0 | 0.0 | 0.0 | 0.00 | 0.00 | 0.00 | 89 | 1017.0 |
| 20260510142527 | 55 | 0 | 0.0 | 0.0 | 0.00 | 0.00 | 0.00 | 88 | 1017.1 |
| 20260510142027 | 55 | 0 | 0.0 | 0.0 | 0.00 | 0.00 | 0.00 | 89 | 1017.1 |
| 20260510141527 | 55 | 0 | 0.0 | 0.0 | 0.00 | 0.00 | 0.00 | 89 | 1017.1 |
| 20260510141027 | 55 | 0 | 0.0 | 0.0 | 0.00 | 0.00 | 0.00 | 88 | 1017.1 |
| 20260510135527 | 54 | 0 | 0.0 | 0.0 | 0.00 | 0.00 | 0.00 | 88 | 1016.4 |
| 20260510135027 | 54 | 0 | 0.0 | 0.0 | 0.00 | 0.00 | 0.00 | 88 | 1016.6 |
| 20260510134527 | 54 | 0 | 0.0 | 0.0 | 0.00 | 0.00 | 0.00 | 88 | 1017.0 |
| 20260510134027 | 54 | 0 | 0.0 | 0.0 | 0.00 | 0.00 | 0.00 | 88 | 1016.8 |
| 20260510133527 | 54 | 0 | 0.0 | 0.0 | 0.00 | 0.00 | 0.00 | 88 | 1016.9 |
| 20260510133027 | 54 | 0 | 0.0 | 0.0 | 0.00 | 0.00 | 0.00 | 88 | 1016.8 |
| 20260510132527 | 54 | 0 | 0.0 | 0.0 | 0.00 | 0.00 | 0.00 | 88 | 1016.7 |
| 20260510132027 | 54 | 0 | 0.0 | 0.0 | 0.00 | 0.00 | 0.00 | 88 | 1016.5 |
| 20260510131527 | 54 | 0 | 0.0 | 0.0 | 0.00 | 0.00 | 0.00 | 88 | 1016.6 |
| 20260510131027 | 54 | 0 | 0.0 | 0.0 | 0.00 | 0.00 | 0.00 | 88 | 1016.7 |
| 20260510130528 | 54 | 0 | 0.0 | 0.0 | 0.00 | 0.00 | 0.00 | 88 | 1016.5 |
| 20260510130027 | 54 | 0 | 0.0 | 0.0 | 0.00 | 0.00 | 0.00 | 88 | 1016.6 |
| 20260510124027 | 55 | 0 | 0.0 | 0.0 | 0.00 | 0.00 | 0.00 | 88 | 1016.4 |
| 20260510123527 | 55 | 0 | 0.0 | 0.0 | 0.00 | 0.00 | 0.00 | 88 | 1016.1 |
| 20260510123027 | 55 | 0 | 0.0 | 0.0 | 0.00 | 0.00 | 0.00 | 88 | 1016.0 |
| 20260510122527 | 55 | 0 | 0.0 | 0.0 | 0.00 | 0.00 | 0.00 | 88 | 1016.5 |
| 20260510122027 | 55 | 0 | 0.0 | 0.0 | 0.00 | 0.00 | 0.00 | 88 | 1016.6 |
| 20260510121529 | 55 | 0 | 0.0 | 0.0 | 0.00 | 0.00 | 0.00 | 88 | 1016.5 |
| 20260510121027 | 55 | 0 | 0.0 | 0.0 | 0.00 | 0.00 | 0.00 | 87 | 1016.3 |
| 20260510120526 | 55 | 0 | 0.0 | 0.0 | 0.00 | 0.00 | 0.00 | 88 | 1016.4 |
| 20260510115526 | 55 | 0 | 0.0 | 0.0 | 0.00 | 0.00 | 0.00 | 87 | 1016.6 |
| 20260510115026 | 55 | 0 | 0.0 | 0.0 | 0.00 | 0.00 | 0.00 | 87 | 1016.7 |
| 20260510114526 | 55 | 0 | 0.0 | 0.0 | 0.00 | 0.00 | 0.00 | 87 | 1016.5 |
| 20260510114027 | 55 | 0 | 0.0 | 0.0 | 0.00 | 0.00 | 0.00 | 87 | 1016.7 |
| 20260510113526 | 55 | 0 | 0.0 | 0.0 | 0.00 | 0.00 | 0.00 | 87 | 1016.5 |
| 20260510113026 | 55 | 0 | 0.0 | 0.0 | 0.00 | 0.00 | 0.00 | 87 | 1016.3 |
| 20260510112527 | 55 | 0 | 0.0 | 0.0 | 0.00 | 0.00 | 0.00 | 87 | 1016.7 |
| 20260510112026 | 55 | 0 | 0.0 | 1.0 | 0.00 | 0.00 | 0.00 | 87 | 1016.7 |
| 20260510111526 | 55 | 0 | 0.0 | 1.0 | 0.00 | 0.00 | 0.00 | 87 | 1016.6 |
| 20260510111026 | 55 | 337 | 0.0 | 1.0 | 0.00 | 0.00 | 0.00 | 87 | 1016.7 |
| 20260510110526 | 55 | 0 | 0.0 | 0.0 | 0.00 | 0.00 | 0.00 | 87 | 1016.8 |
| 20260510110026 | 55 | 0 | 0.0 | 0.0 | 0.00 | 0.00 | 0.00 | 88 | 1016.9 |
| 20260510105529 | 55 | 0 | 0.0 | 0.0 | 0.00 | 0.00 | 0.00 | 87 | 1016.9 |
| 20260510105026 | 55 | 0 | 0.0 | 0.0 | 0.00 | 0.00 | 0.00 | 88 | 1016.7 |
| 20260510104526 | 55 | 0 | 0.0 | 0.0 | 0.00 | 0.00 | 0.00 | 88 | 1016.6 |
| 20260510104026 | 55 | 0 | 0.0 | 0.0 | 0.00 | 0.00 | 0.00 | 88 | 1016.6 |
| 20260510103526 | 55 | 0 | 0.0 | 0.0 | 0.00 | 0.00 | 0.00 | 88 | 1016.7 |
| 20260510103026 | 55 | 0 | 0.0 | 0.0 | 0.00 | 0.00 | 0.00 | 88 | 1016.8 |
| 20260510102526 | 56 | 0 | 0.0 | 0.0 | 0.00 | 0.00 | 0.00 | 88 | 1016.7 |
| 20260510102026 | 55 | 0 | 0.0 | 0.0 | 0.00 | 0.00 | 0.00 | 88 | 1016.8 |
| 20260510101526 | 55 | 0 | 0.0 | 0.0 | 0.00 | 0.00 | 0.00 | 88 | 1016.3 |
| 20260510101026 | 56 | 0 | 0.0 | 0.0 | 0.00 | 0.00 | 0.00 | 88 | 1016.2 |
| 20260510100526 | 55 | 0 | 0.0 | 0.0 | 0.00 | 0.00 | 0.00 | 88 | 1016.4 |
| 20260510100026 | 56 | 0 | 0.0 | 0.0 | 0.00 | 0.00 | 0.00 | 89 | 1016.5 |
| 20260510095630 | 56 | 0 | 0.0 | 0.0 | 0.00 | 0.00 | 0.00 | 89 | 1016.5 |
| 20260510095527 | 56 | 0 | 0.0 | 0.0 | 0.00 | 0.00 | 0.00 | 89 | 1016.5 |
| 20260510095026 | 56 | 0 | 0.0 | 0.0 | 0.00 | 0.00 | 0.00 | 89 | 1016.4 |
| 20260510094026 | 56 | 0 | 0.0 | 0.0 | 0.00 | 0.00 | 0.00 | 89 | 1016.2 |
| 20260510093526 | 56 | 0 | 0.0 | 0.0 | 0.00 | 0.00 | 0.00 | 89 | 1016.1 |
| 20260510093026 | 56 | 0 | 0.0 | 0.0 | 0.00 | 0.00 | 0.00 | 89 | 1016.0 |
| 20260510092559 | 56 | 0 | 0.0 | 0.0 | 0.00 | 0.00 | 0.00 | 89 | 1016.2 |
| 20260510092526 | 56 | 0 | 0.0 | 0.0 | 0.00 | 0.00 | 0.00 | 89 | 1016.2 |
| 20260510092026 | 56 | 0 | 0.0 | 0.0 | 0.00 | 0.00 | 0.00 | 89 | 1016.3 |
| 20260510091526 | 55 | 0 | 0.0 | 0.0 | 0.00 | 0.00 | 0.00 | 89 | 1016.3 |
| 20260510091026 | 56 | 0 | 0.0 | 0.0 | 0.00 | 0.00 | 0.00 | 89 | 1016.3 |
| 20260510090526 | 56 | 0 | 0.0 | 0.0 | 0.00 | 0.00 | 0.00 | 89 | 1016.1 |
| 20260510085527 | 56 | 0 | 0.0 | 0.0 | 0.00 | 0.00 | 0.00 | 89 | 1015.9 |
| 20260510085026 | 56 | 0 | 0.0 | 0.0 | 0.00 | 0.00 | 0.00 | 89 | 1015.8 |
| 20260510084526 | 56 | 0 | 0.0 | 0.0 | 0.00 | 0.00 | 0.00 | 89 | 1015.8 |
| 20260510084026 | 56 | 0 | 0.0 | 0.0 | 0.00 | 0.00 | 0.00 | 88 | 1015.9 |
| 20260510083026 | 56 | 0 | 0.0 | 0.0 | 0.00 | 0.00 | 0.00 | 88 | 1016.2 |
| 20260510082530 | 56 | 326 | 0.0 | 0.0 | 0.00 | 0.00 | 0.00 | 88 | 1016.2 |
| 20260510082026 | 56 | 0 | 0.0 | 0.0 | 0.00 | 0.00 | 0.00 | 88 | 1016.3 |
| 20260510081526 | 56 | 0 | 0.0 | 0.0 | 0.00 | 0.00 | 0.00 | 88 | 1016.3 |
| 20260510081026 | 56 | 0 | 0.0 | 0.0 | 0.00 | 0.00 | 0.00 | 88 | 1016.1 |
| 20260510080026 | 56 | 0 | 0.0 | 0.0 | 0.00 | 0.00 | 0.00 | 88 | 1016.2 |
| 20260510075026 | 56 | 0 | 0.0 | 0.0 | 0.00 | 0.00 | 0.00 | 88 | 1016.0 |
| 20260510074528 | 56 | 0 | 0.0 | 0.0 | 0.00 | 0.00 | 0.00 | 88 | 1015.9 |
| 20260510074026 | 56 | 0 | 0.0 | 0.0 | 0.00 | 0.00 | 0.00 | 88 | 1015.9 |
| 20260510073026 | 56 | 0 | 0.0 | 0.0 | 0.00 | 0.00 | 0.00 | 88 | 1015.7 |
| 20260510072526 | 56 | 0 | 0.0 | 0.0 | 0.00 | 0.00 | 0.00 | 88 | 1015.7 |
| 20260510072026 | 56 | 0 | 0.0 | 0.0 | 0.00 | 0.00 | 0.00 | 89 | 1015.7 |
| 20260510071527 | 56 | 0 | 0.0 | 0.0 | 0.00 | 0.00 | 0.00 | 89 | 1015.7 |
| 20260510071027 | 56 | 0 | 0.0 | 0.0 | 0.00 | 0.00 | 0.00 | 89 | 1015.6 |
| 20260510070527 | 56 | 0 | 0.0 | 0.0 | 0.00 | 0.00 | 0.00 | 89 | 1015.6 |
| 20260510070026 | 56 | 0 | 0.0 | 0.0 | 0.00 | 0.00 | 0.00 | 89 | 1015.6 |
| 20260510065528 | 56 | 0 | 0.0 | 0.0 | 0.00 | 0.00 | 0.00 | 89 | 1015.5 |
| 20260510065026 | 56 | 0 | 0.0 | 0.0 | 0.00 | 0.00 | 0.00 | 89 | 1015.5 |
| 20260510064527 | 56 | 0 | 0.0 | 0.0 | 0.00 | 0.00 | 0.00 | 89 | 1015.5 |
| 20260510064026 | 56 | 0 | 0.0 | 0.0 | 0.00 | 0.00 | 0.00 | 89 | 1015.6 |
| 20260510063527 | 56 | 0 | 0.0 | 0.0 | 0.00 | 0.00 | 0.00 | 89 | 1015.5 |
| 20260510063026 | 56 | 0 | 0.0 | 0.0 | 0.00 | 0.00 | 0.00 | 89 | 1015.5 |
| 20260510062527 | 56 | 0 | 0.0 | 0.0 | 0.00 | 0.00 | 0.00 | 89 | 1015.4 |
| 20260510062026 | 56 | 0 | 0.0 | 0.0 | 0.00 | 0.00 | 0.00 | 89 | 1015.5 |
| 20260510061526 | 56 | 0 | 0.0 | 0.0 | 0.00 | 0.00 | 0.00 | 89 | 1015.5 |
| 20260510061026 | 56 | 0 | 0.0 | 0.0 | 0.00 | 0.00 | 0.00 | 89 | 1015.5 |
| 20260510060026 | 56 | 0 | 0.0 | 0.0 | 0.00 | 0.00 | 0.00 | 90 | 1015.5 |
| 20260510055026 | 56 | 0 | 0.0 | 0.0 | 0.00 | 0.00 | 0.00 | 90 | 1015.6 |
| 20260510054526 | 56 | 0 | 0.0 | 0.0 | 0.00 | 0.00 | 0.00 | 90 | 1015.6 |
| 20260510054026 | 56 | 0 | 0.0 | 0.0 | 0.00 | 0.00 | 0.00 | 90 | 1015.5 |
| 20260510053526 | 56 | 0 | 0.0 | 0.0 | 0.00 | 0.00 | 0.00 | 90 | 1015.5 |
| 20260510053026 | 56 | 0 | 0.0 | 0.0 | 0.00 | 0.00 | 0.00 | 90 | 1015.5 |
| 20260510052026 | 56 | 0 | 0.0 | 5.0 | 0.00 | 0.00 | 0.00 | 90 | 1015.4 |
| 20260510051526 | 56 | 329 | 0.0 | 5.0 | 0.00 | 0.00 | 0.00 | 90 | 1015.4 |
| 20260510051026 | 56 | 18 | 0.0 | 5.0 | 0.00 | 0.00 | 0.00 | 90 | 1015.4 |
| 20260510050526 | 56 | 344 | 0.0 | 1.0 | 0.00 | 0.00 | 0.00 | 90 | 1015.3 |
| 20260510050026 | 56 | 0 | 0.0 | 1.0 | 0.00 | 0.00 | 0.00 | 90 | 1015.3 |
| 20260510045527 | 56 | 0 | 0.0 | 1.0 | 0.00 | 0.00 | 0.00 | 90 | 1015.2 |
| 20260510045026 | 56 | 12 | 0.0 | 1.0 | 0.00 | 0.00 | 0.00 | 90 | 1015.1 |
| 20260510044526 | 56 | 0 | 0.0 | 0.0 | 0.00 | 0.00 | 0.00 | 90 | 1015.0 |
| 20260510044026 | 56 | 0 | 0.0 | 4.0 | 0.00 | 0.00 | 0.00 | 90 | 1014.9 |
| 20260510043526 | 56 | 0 | 0.0 | 4.0 | 0.00 | 0.00 | 0.00 | 90 | 1014.9 |
| 20260510043026 | 56 | 324 | 0.0 | 4.0 | 0.00 | 0.00 | 0.00 | 89 | 1014.8 |
| 20260510042528 | 56 | 341 | 0.0 | 2.0 | 0.00 | 0.00 | 0.00 | 89 | 1014.7 |
| 20260510042026 | 56 | 354 | 0.0 | 2.0 | 0.00 | 0.00 | 0.00 | 89 | 1014.7 |
| 20260510041527 | 57 | 336 | 0.0 | 2.0 | 0.00 | 0.00 | 0.00 | 89 | 1014.5 |
| 20260510041026 | 57 | 317 | 0.0 | 2.0 | 0.00 | 0.00 | 0.00 | 88 | 1014.4 |
| 20260510035027 | 58 | 0 | 0.0 | 0.0 | 0.00 | 0.00 | 0.00 | 86 | 1014.3 |
| 20260510034525 | 58 | 0 | 0.0 | 0.0 | 0.00 | 0.00 | 0.00 | 85 | 1014.1 |
| 20260510034027 | 59 | 0 | 0.0 | 0.0 | 0.00 | 0.00 | 0.00 | 85 | 1014.1 |
| 20260510033525 | 59 | 0 | 0.0 | 0.0 | 0.00 | 0.00 | 0.00 | 85 | 1014.0 |
| 20260510033025 | 59 | 0 | 0.0 | 0.0 | 0.00 | 0.00 | 0.00 | 84 | 1013.9 |
| 20260510032142 | 59 | 0 | 0.0 | 0.0 | 0.00 | 0.00 | 0.00 | 84 | 1013.7 |
| 20260510032025 | 59 | 0 | 0.0 | 0.0 | 0.00 | 0.00 | 0.00 | 84 | 1013.7 |
| 20260510031525 | 59 | 0 | 0.0 | 0.0 | 0.00 | 0.00 | 0.00 | 84 | 1013.6 |
| 20260510031026 | 59 | 0 | 0.0 | 0.0 | 0.00 | 0.00 | 0.00 | 84 | 1013.6 |
| 20260510030526 | 60 | 0 | 0.0 | 0.0 | 0.00 | 0.00 | 0.00 | 83 | 1013.6 |
| 20260510030025 | 60 | 0 | 0.0 | 0.0 | 0.00 | 0.00 | 0.00 | 83 | 1013.5 |
| 20260510025529 | 60 | 0 | 0.0 | 3.0 | 0.00 | 0.00 | 0.00 | 83 | 1013.5 |
| 20260510025025 | 60 | 0 | 0.0 | 3.0 | 0.00 | 0.00 | 0.00 | 82 | 1013.4 |
| 20260510024525 | 60 | 0 | 0.0 | 3.0 | 0.00 | 0.00 | 0.00 | 81 | 1013.4 |
| 20260510024028 | 60 | 168 | 0.0 | 3.0 | 0.00 | 0.00 | 0.00 | 81 | 1013.4 |
| 20260510023525 | 61 | 127 | 0.0 | 5.0 | 0.00 | 0.00 | 0.00 | 81 | 1013.5 |
| 20260510022843 | 63 | 0 | 0.0 | 0.0 | 0.00 | 0.00 | 0.00 | 74 | 1013.4 |
| 20260510022025 | 62 | 156 | 0.0 | 3.0 | 0.00 | 0.00 | 0.00 | 78 | 1013.6 |
| 20260510021525 | 62 | 219 | 0.0 | 3.0 | 0.00 | 0.00 | 0.00 | 78 | 1013.5 |
| 20260510020025 | 63 | 0 | 0.0 | 0.0 | 0.00 | 0.00 | 0.00 | 74 | 1013.4 |
| 20260510015527 | 63 | 0 | 0.0 | 1.0 | 0.00 | 0.00 | 0.00 | 74 | 1013.5 |
| 20260510015025 | 64 | 0 | 0.0 | 1.0 | 0.00 | 0.00 | 0.00 | 75 | 1013.5 |
| 20260510014525 | 64 | 82 | 0.0 | 1.0 | 0.00 | 0.00 | 0.00 | 73 | 1013.6 |
| 20260510014026 | 64 | 179 | 0.0 | 0.0 | 0.00 | 0.00 | 0.00 | 74 | 1013.5 |
| 20260510013525 | 64 | 0 | 0.0 | 2.0 | 0.00 | 0.00 | 0.00 | 73 | 1013.5 |
| 20260510013025 | 64 | 0 | 0.0 | 2.0 | 0.00 | 0.00 | 0.00 | 73 | 1013.5 |
| 20260510012527 | 64 | 205 | 0.0 | 2.0 | 0.00 | 0.00 | 0.00 | 73 | 1013.5 |
| 20260510012025 | 64 | 128 | 0.0 | 2.0 | 0.00 | 0.00 | 0.00 | 72 | 1013.6 |
| 20260510011525 | 63 | 47 | 0.0 | 2.0 | 0.00 | 0.00 | 0.00 | 71 | 1013.6 |
| 20260510011025 | 63 | 0 | 0.0 | 0.0 | 0.00 | 0.00 | 0.00 | 71 | 1013.6 |
| 20260510010525 | 63 | 0 | 0.0 | 0.0 | 0.00 | 0.00 | 0.00 | 72 | 1013.7 |
| 20260510010025 | 63 | 0 | 0.0 | 2.0 | 0.00 | 0.00 | 0.00 | 71 | 1013.7 |
| 20260510005527 | 63 | 113 | 0.0 | 2.0 | 0.00 | 0.00 | 0.00 | 71 | 1013.7 |
| 20260510005025 | 63 | 0 | 0.0 | 2.0 | 0.00 | 0.00 | 0.00 | 71 | 1013.7 |
| 20260510004525 | 63 | 330 | 0.0 | 4.0 | 0.00 | 0.00 | 0.00 | 70 | 1013.6 |
| 20260510004025 | 63 | 329 | 0.0 | 4.0 | 0.00 | 0.00 | 0.00 | 71 | 1013.6 |
| 20260510003525 | 63 | 322 | 1.0 | 4.0 | 0.00 | 0.00 | 0.00 | 71 | 1013.7 |
| 20260510003025 | 63 | 319 | 1.0 | 4.0 | 0.00 | 0.00 | 0.00 | 70 | 1013.7 |
| 20260510002527 | 63 | 340 | 2.0 | 8.0 | 0.00 | 0.00 | 0.00 | 70 | 1013.7 |
| 20260510002025 | 63 | 317 | 1.0 | 8.0 | 0.00 | 0.00 | 0.00 | 70 | 1013.8 |
| 20260510001525 | 64 | 40 | 2.0 | 8.0 | 0.00 | 0.00 | 0.00 | 69 | 1013.8 |
| 20260510001025 | 64 | 1 | 1.0 | 5.0 | 0.00 | 0.00 | 0.00 | 69 | 1013.8 |
| 20260510000525 | 64 | 329 | 1.0 | 5.0 | 0.00 | 0.00 | 0.00 | 69 | 1013.9 |
| 20260510000025 | 64 | 308 | 2.0 | 5.0 | 0.00 | 0.00 | 0.00 | 69 | 1013.9 |
| 20260509235528 | 64 | 35 | 1.0 | 5.0 | 0.00 | 0.00 | 0.00 | 69 | 1014.0 |
| 20260509235025 | 64 | 320 | 2.0 | 3.0 | 0.00 | 0.00 | 0.00 | 70 | 1014.0 |
| 20260509233525 | 65 | 16 | 3.0 | 5.0 | 0.00 | 0.00 | 0.00 | 67 | 1014.0 |
| 20260509233025 | 66 | 14 | 1.0 | 5.0 | 0.00 | 0.00 | 0.00 | 66 | 1014.0 |
| 20260509232528 | 66 | 327 | 2.0 | 5.0 | 0.00 | 0.00 | 0.00 | 66 | 1014.1 |
| 20260509232025 | 66 | 338 | 1.0 | 3.0 | 0.00 | 0.00 | 0.00 | 65 | 1014.2 |
| 20260509231525 | 67 | 330 | 2.0 | 6.0 | 0.00 | 0.00 | 0.00 | 64 | 1014.2 |
| 20260509231025 | 67 | 11 | 1.0 | 6.0 | 0.00 | 0.00 | 0.00 | 64 | 1014.3 |
| 20260509230025 | 69 | 43 | 1.0 | 5.0 | 0.00 | 0.00 | 0.00 | 63 | 1014.5 |
| 20260509225526 | 69 | 29 | 1.0 | 5.0 | 0.00 | 0.00 | 0.00 | 61 | 1014.5 |
| 20260509225025 | 70 | 0 | 0.0 | 0.0 | 0.00 | 0.00 | 0.00 | 61 | 1014.4 |
| 20260509224525 | 71 | 0 | 0.0 | 0.0 | 0.00 | 0.00 | 0.00 | 59 | 1014.4 |
| 20260509224025 | 71 | 298 | 0.0 | 7.0 | 0.00 | 0.00 | 0.00 | 58 | 1014.4 |
| 20260509223525 | 72 | 5 | 0.0 | 7.0 | 0.00 | 0.00 | 0.00 | 56 | 1014.5 |
| 20260509223025 | 73 | 231 | 1.0 | 7.0 | 0.00 | 0.00 | 0.00 | 59 | 1014.5 |
| 20260509222118 | 72 | 242 | 1.0 | 5.0 | 0.00 | 0.00 | 0.00 | 59 | 1014.5 |
| 20260509222025 | 72 | 242 | 1.0 | 5.0 | 0.00 | 0.00 | 0.00 | 59 | 1014.5 |
| 20260509221525 | 72 | 239 | 0.0 | 5.0 | 0.00 | 0.00 | 0.00 | 57 | 1014.6 |
| 20260509221025 | 72 | 187 | 2.0 | 5.0 | 0.00 | 0.00 | 0.00 | 61 | 1014.7 |
| 20260509220525 | 72 | 254 | 1.0 | 4.0 | 0.00 | 0.00 | 0.00 | 62 | 1014.7 |
| 20260509220026 | 71 | 225 | 0.0 | 3.0 | 0.00 | 0.00 | 0.00 | 64 | 1014.8 |
| 20260509215527 | 71 | 23 | 0.0 | 5.0 | 0.00 | 0.00 | 0.00 | 59 | 1014.8 |
| 20260509215025 | 71 | 228 | 0.0 | 5.0 | 0.00 | 0.00 | 0.00 | 61 | 1015.0 |
| 20260509214525 | 71 | 239 | 1.0 | 5.0 | 0.00 | 0.00 | 0.00 | 63 | 1015.2 |
| 20260509214025 | 71 | 249 | 0.0 | 2.0 | 0.00 | 0.00 | 0.00 | 61 | 1015.3 |
| 20260509213525 | 71 | 316 | 0.0 | 2.0 | 0.00 | 0.00 | 0.00 | 63 | 1015.3 |
| 20260509213025 | 70 | 0 | 0.0 | 2.0 | 0.00 | 0.00 | 0.00 | 63 | 1015.4 |
| 20260509212527 | 70 | 295 | 0.0 | 2.0 | 0.00 | 0.00 | 0.00 | 63 | 1015.5 |
| 20260509212025 | 69 | 173 | 0.0 | 2.0 | 0.00 | 0.00 | 0.00 | 63 | 1015.6 |
| 20260509211525 | 69 | 298 | 0.0 | 5.0 | 0.00 | 0.00 | 0.00 | 62 | 1015.7 |
| 20260509211025 | 69 | 306 | 0.0 | 5.0 | 0.00 | 0.00 | 0.00 | 62 | 1015.7 |
| 20260509210526 | 69 | 12 | 0.0 | 5.0 | 0.00 | 0.00 | 0.00 | 63 | 1015.8 |
| 20260509210025 | 68 | 36 | 1.0 | 4.0 | 0.00 | 0.00 | 0.00 | 63 | 1015.9 |
| 20260509205528 | 68 | 292 | 0.0 | 3.0 | 0.00 | 0.00 | 0.00 | 66 | 1015.9 |
| 20260509205025 | 68 | 323 | 1.0 | 6.0 | 0.00 | 0.00 | 0.00 | 63 | 1015.9 |
| 20260509204525 | 68 | 19 | 2.0 | 6.0 | 0.00 | 0.00 | 0.00 | 64 | 1016.1 |
| 20260509203525 | 69 | 33 | 0.0 | 4.0 | 0.00 | 0.00 | 0.00 | 64 | 1016.2 |
| 20260509203025 | 69 | 341 | 0.0 | 2.0 | 0.00 | 0.00 | 0.00 | 63 | 1016.3 |
| 20260509202025 | 69 | 252 | 1.0 | 4.0 | 0.00 | 0.00 | 0.00 | 66 | 1016.2 |